contact:dominique.lefevre@mio.osupytheas.fr, maurice.libes@osupytheas.fr, didier.mallarino@osupytheas.fr
Project:EMSO http://www.emso-fr.org/EMSO-France
Depth: 2436.0 m
Title:EMSO Ligure Ouest : Data MII capteur MICROCAT
DateTime_Computer,Latitude,Longitude,Temperature,Conductivity,Pressure,DateTime_Instrument
DateTime_Computer,Latitude,Longitude,degC,S m-1,dbar,DateTime_Instrument
2020-05-12T00:01:19Z,42.805,6.029,13.2992,4.59989,2470.133,2020-5-12T02:02:01Z
2020-05-12T00:04:22Z,42.805,6.029,13.2992,4.59988,2470.124,2020-5-12T02:05:04Z
2020-05-12T00:07:26Z,42.805,6.029,13.2986,4.59986,2470.133,2020-5-12T02:08:07Z
2020-05-12T00:10:29Z,42.805,6.029,13.2990,4.59988,2470.11,2020-5-12T02:11:11Z
2020-05-12T00:13:32Z,42.805,6.029,13.2991,4.59984,2470.147,2020-5-12T02:14:14Z
2020-05-12T00:16:35Z,42.805,6.029,13.2988,4.59989,2470.133,2020-5-12T02:17:17Z
2020-05-12T00:19:39Z,42.805,6.029,13.3002,4.59988,2470.133,2020-5-12T02:20:20Z
2020-05-12T00:22:42Z,42.805,6.029,13.2985,4.59991,2470.133,2020-5-12T02:23:24Z
2020-05-12T00:25:45Z,42.805,6.029,13.2988,4.59988,2470.11,2020-5-12T02:26:27Z
2020-05-12T00:28:48Z,42.805,6.029,13.2991,4.59987,2470.133,2020-5-12T02:29:30Z
2020-05-12T00:31:52Z,42.805,6.029,13.2986,4.59988,2470.133,2020-5-12T02:32:33Z
2020-05-12T00:34:55Z,42.805,6.029,13.2990,4.59982,2470.133,2020-5-12T02:35:37Z
2020-05-12T00:37:58Z,42.805,6.029,13.2992,4.59988,2470.11,2020-5-12T02:38:40Z
2020-05-12T00:41:01Z,42.805,6.029,13.2986,4.59985,2470.11,2020-5-12T02:41:43Z
2020-05-12T00:44:05Z,42.805,6.029,13.2984,4.59988,2470.1,2020-5-12T02:44:46Z
2020-05-12T00:47:08Z,42.805,6.029,13.2990,4.59986,2470.133,2020-5-12T02:47:50Z
2020-05-12T00:50:11Z,42.805,6.029,13.2992,4.59987,2470.087,2020-5-12T02:50:53Z
2020-05-12T00:53:14Z,42.805,6.029,13.2981,4.59987,2470.11,2020-5-12T02:53:56Z
2020-05-12T00:56:18Z,42.805,6.029,13.2986,4.59986,2470.1,2020-5-12T02:56:59Z
2020-05-12T00:59:21Z,42.805,6.029,13.2991,4.59982,2470.11,2020-5-12T03:00:02Z
2020-05-12T01:02:24Z,42.805,6.029,13.2986,4.59988,2470.1,2020-5-12T03:03:06Z
2020-05-12T01:05:27Z,42.805,6.029,13.2985,4.59988,2470.133,2020-5-12T03:06:09Z
2020-05-12T01:08:31Z,42.805,6.029,13.2987,4.59993,2470.063,2020-5-12T03:09:12Z
2020-05-12T01:11:34Z,42.805,6.029,13.2985,4.59984,2470.11,2020-5-12T03:12:15Z
2020-05-12T01:14:37Z,42.805,6.029,13.2993,4.59982,2470.087,2020-5-12T03:15:19Z
2020-05-12T01:17:40Z,42.805,6.029,13.2983,4.59985,2470.147,2020-5-12T03:18:22Z
2020-05-12T01:20:43Z,42.805,6.029,13.2981,4.59984,2470.1,2020-5-12T03:21:25Z
2020-05-12T01:23:47Z,42.805,6.029,13.2980,4.59982,2470.124,2020-5-12T03:24:28Z
2020-05-12T01:26:50Z,42.805,6.029,13.2982,4.59982,2470.087,2020-5-12T03:27:32Z
2020-05-12T01:29:53Z,42.805,6.029,13.2985,4.59978,2470.077,2020-5-12T03:30:35Z
2020-05-12T01:32:56Z,42.805,6.029,13.2977,4.59986,2470.124,2020-5-12T03:33:38Z
2020-05-12T01:36:00Z,42.805,6.029,13.2983,4.59986,2470.087,2020-5-12T03:36:41Z
2020-05-12T01:39:03Z,42.805,6.029,13.2989,4.59988,2470.11,2020-5-12T03:39:45Z
2020-05-12T01:42:06Z,42.805,6.029,13.2982,4.59993,2470.124,2020-5-12T03:42:48Z
2020-05-12T01:45:10Z,42.805,6.029,13.2991,4.59983,2470.087,2020-5-12T03:45:51Z
2020-05-12T01:48:13Z,42.805,6.029,13.2984,4.59993,2470.11,2020-5-12T03:48:54Z
2020-05-12T01:51:16Z,42.805,6.029,13.2982,4.59981,2470.04,2020-5-12T03:51:58Z
2020-05-12T01:54:19Z,42.805,6.029,13.2986,4.59991,2470.1,2020-5-12T03:55:01Z
2020-05-12T01:57:22Z,42.805,6.029,13.2986,4.59991,2470.063,2020-5-12T03:58:04Z
2020-05-12T02:00:26Z,42.805,6.029,13.2990,4.59982,2470.11,2020-5-12T04:01:07Z
2020-05-12T02:03:29Z,42.805,6.029,13.2984,4.59982,2470.087,2020-5-12T04:04:11Z
2020-05-12T02:06:32Z,42.805,6.029,13.2981,4.59981,2470.063,2020-5-12T04:07:14Z
2020-05-12T02:09:36Z,42.805,6.029,13.2983,4.59988,2470.133,2020-5-12T04:10:17Z
2020-05-12T02:12:39Z,42.805,6.029,13.2983,4.59986,2470.087,2020-5-12T04:13:20Z
2020-05-12T02:15:42Z,42.805,6.029,13.2990,4.59991,2470.063,2020-5-12T04:16:24Z
2020-05-12T02:18:45Z,42.805,6.029,13.2991,4.59986,2470.1,2020-5-12T04:19:27Z
2020-05-12T02:21:48Z,42.805,6.029,13.2990,4.60005,2470.087,2020-5-12T04:22:30Z
2020-05-12T02:24:52Z,42.805,6.029,13.2986,4.59989,2470.077,2020-5-12T04:25:33Z
2020-05-12T02:27:55Z,42.805,6.029,13.2993,4.59991,2470.063,2020-5-12T04:28:37Z
2020-05-12T02:30:58Z,42.805,6.029,13.2987,4.59989,2470.04,2020-5-12T04:31:40Z
2020-05-12T02:34:02Z,42.805,6.029,13.2995,4.59994,2470.063,2020-5-12T04:34:43Z
2020-05-12T02:37:05Z,42.805,6.029,13.2990,4.59987,2470.04,2020-5-12T04:37:47Z
2020-05-12T02:40:08Z,42.805,6.029,13.2991,4.59985,2470.063,2020-5-12T04:40:50Z
2020-05-12T02:43:11Z,42.805,6.029,13.2984,4.59993,2470.087,2020-5-12T04:43:53Z
2020-05-12T02:46:15Z,42.805,6.029,13.2993,4.59989,2470.063,2020-5-12T04:46:56Z
2020-05-12T02:49:18Z,42.805,6.029,13.2985,4.59989,2470.1,2020-5-12T04:50:00Z
2020-05-12T02:52:21Z,42.805,6.029,13.2988,4.59987,2470.077,2020-5-12T04:53:03Z
2020-05-12T02:55:25Z,42.805,6.029,13.2989,4.59995,2470.1,2020-5-12T04:56:06Z
2020-05-12T02:58:28Z,42.805,6.029,13.2998,4.60005,2470.087,2020-5-12T04:59:10Z
2020-05-12T03:01:31Z,42.805,6.029,13.2983,4.60001,2470.04,2020-5-12T05:02:13Z
2020-05-12T03:04:34Z,42.805,6.029,13.2998,4.59992,2470.053,2020-5-12T05:05:16Z
2020-05-12T03:07:38Z,42.805,6.029,13.2989,4.59995,2470.04,2020-5-12T05:08:19Z
2020-05-12T03:10:41Z,42.805,6.029,13.2988,4.59991,2470.077,2020-5-12T05:11:23Z
2020-05-12T03:13:44Z,42.805,6.029,13.2998,4.60004,2470.063,2020-5-12T05:14:26Z
2020-05-12T03:16:47Z,42.805,6.029,13.2992,4.59986,2470.063,2020-5-12T05:17:29Z
2020-05-12T03:19:51Z,42.805,6.029,13.2990,4.59994,2470.063,2020-5-12T05:20:32Z
2020-05-12T03:22:54Z,42.805,6.029,13.2996,4.59992,2470.04,2020-5-12T05:23:36Z
2020-05-12T03:25:57Z,42.805,6.029,13.3004,4.59990,2470.03,2020-5-12T05:26:39Z
2020-05-12T03:29:00Z,42.805,6.029,13.2997,4.59984,2470.04,2020-5-12T05:29:42Z
2020-05-12T03:32:04Z,42.805,6.029,13.2998,4.60000,2470.04,2020-5-12T05:32:45Z
2020-05-12T03:35:07Z,42.805,6.029,13.3001,4.60011,2470.04,2020-5-12T05:35:49Z
2020-05-12T03:38:11Z,42.805,6.029,13.2990,4.59985,2470.017,2020-5-12T05:38:52Z
2020-05-12T03:41:14Z,42.805,6.029,13.2985,4.59996,2470.04,2020-5-12T05:41:56Z
2020-05-12T03:44:17Z,42.805,6.029,13.2989,4.59991,2470.063,2020-5-12T05:44:59Z
2020-05-12T03:47:20Z,42.805,6.029,13.2986,4.59987,2470.053,2020-5-12T05:48:02Z
2020-05-12T03:50:23Z,42.805,6.029,13.2989,4.59990,2470.053,2020-5-12T05:51:05Z
2020-05-12T03:53:27Z,42.805,6.029,13.2992,4.60005,2470.017,2020-5-12T05:54:08Z
2020-05-12T03:56:30Z,42.805,6.029,13.2990,4.59990,2470.04,2020-5-12T05:57:12Z
2020-05-12T03:59:33Z,42.805,6.029,13.2991,4.60006,2470.067,2020-5-12T06:00:15Z
2020-05-12T04:02:36Z,42.805,6.029,13.2995,4.59991,2470.053,2020-5-12T06:03:18Z
2020-05-12T04:05:40Z,42.805,6.029,13.2996,4.59991,2470.053,2020-5-12T06:06:21Z
2020-05-12T04:08:43Z,42.805,6.029,13.2995,4.59996,2470.007,2020-5-12T06:09:24Z
2020-05-12T04:11:46Z,42.805,6.029,13.2995,4.60003,2470.053,2020-5-12T06:12:28Z
2020-05-12T04:14:49Z,42.805,6.029,13.2995,4.60009,2470.017,2020-5-12T06:15:31Z
2020-05-12T04:17:52Z,42.805,6.029,13.3005,4.60013,2470.017,2020-5-12T06:18:34Z
2020-05-12T04:20:56Z,42.805,6.029,13.3001,4.59999,2470.007,2020-5-12T06:21:37Z
2020-05-12T04:23:59Z,42.805,6.029,13.2987,4.59998,2470.04,2020-5-12T06:24:41Z
2020-05-12T04:27:02Z,42.805,6.029,13.3010,4.60009,2470.03,2020-5-12T06:27:44Z
2020-05-12T04:30:06Z,42.805,6.029,13.2993,4.59987,2470.017,2020-5-12T06:30:48Z
2020-05-12T04:33:09Z,42.805,6.029,13.2986,4.59996,2470.053,2020-5-12T06:33:51Z
2020-05-12T04:36:12Z,42.805,6.029,13.2993,4.59985,2469.993,2020-5-12T06:36:54Z
2020-05-12T04:39:16Z,42.805,6.029,13.2986,4.59985,2470.053,2020-5-12T06:39:57Z
2020-05-12T04:42:19Z,42.805,6.029,13.2992,4.60000,2470.007,2020-5-12T06:43:00Z
2020-05-12T04:45:22Z,42.805,6.029,13.2992,4.59996,2470.017,2020-5-12T06:46:04Z
2020-05-12T04:48:25Z,42.805,6.029,13.2989,4.60058,2470.007,2020-5-12T06:49:07Z
2020-05-12T04:51:29Z,42.805,6.029,13.2996,4.59996,2469.993,2020-5-12T06:52:10Z
2020-05-12T04:54:32Z,42.805,6.029,13.2990,4.59996,2470.007,2020-5-12T06:55:14Z
2020-05-12T04:57:35Z,42.805,6.029,13.2994,4.59991,2470.03,2020-5-12T06:58:17Z
2020-05-12T05:00:38Z,42.805,6.029,13.3025,4.59995,2469.97,2020-5-12T07:01:20Z
2020-05-12T05:03:41Z,42.805,6.029,13.2993,4.60004,2470.03,2020-5-12T07:04:23Z
2020-05-12T05:06:45Z,42.805,6.029,13.3016,4.59997,2469.993,2020-5-12T07:07:26Z
2020-05-12T05:09:48Z,42.805,6.029,13.3009,4.59997,2469.993,2020-5-12T07:10:30Z
2020-05-12T05:12:51Z,42.805,6.029,13.3000,4.59993,2470.03,2020-5-12T07:13:33Z
2020-05-12T05:15:54Z,42.805,6.029,13.2991,4.60000,2469.97,2020-5-12T07:16:36Z
2020-05-12T05:18:58Z,42.805,6.029,13.2993,4.59998,2469.984,2020-5-12T07:19:39Z
2020-05-12T05:22:01Z,42.805,6.029,13.2998,4.60014,2470.007,2020-5-12T07:22:43Z
2020-05-12T05:25:04Z,42.805,6.029,13.2988,4.60009,2469.984,2020-5-12T07:25:46Z
2020-05-12T05:28:07Z,42.805,6.029,13.2996,4.60004,2469.97,2020-5-12T07:28:49Z
2020-05-12T05:31:11Z,42.805,6.029,13.2990,4.60006,2469.97,2020-5-12T07:31:53Z
2020-05-12T05:34:14Z,42.805,6.029,13.2998,4.60003,2470.017,2020-5-12T07:34:56Z
2020-05-12T05:37:17Z,42.805,6.029,13.3006,4.59997,2469.97,2020-5-12T07:37:59Z
2020-05-12T05:40:21Z,42.805,6.029,13.2998,4.59998,2469.984,2020-5-12T07:41:02Z
2020-05-12T05:43:24Z,42.805,6.029,13.3009,4.59997,2469.993,2020-5-12T07:44:06Z
2020-05-12T05:46:27Z,42.805,6.029,13.3004,4.60001,2469.97,2020-5-12T07:47:09Z
2020-05-12T05:49:30Z,42.805,6.029,13.2994,4.60004,2469.993,2020-5-12T07:50:12Z
2020-05-12T05:52:33Z,42.805,6.029,13.2998,4.59998,2470.017,2020-5-12T07:53:15Z
2020-05-12T05:55:37Z,42.805,6.029,13.2977,4.60003,2469.97,2020-5-12T07:56:18Z
2020-05-12T05:58:40Z,42.805,6.029,13.3023,4.60003,2470.007,2020-5-12T07:59:22Z
2020-05-12T06:01:43Z,42.805,6.029,13.3012,4.60024,2469.97,2020-5-12T08:02:25Z
2020-05-12T06:04:46Z,42.805,6.029,13.3000,4.60009,2469.97,2020-5-12T08:05:28Z
2020-05-12T06:07:50Z,42.805,6.029,13.2975,4.59999,2469.97,2020-5-12T08:08:31Z
2020-05-12T06:10:53Z,42.805,6.029,13.2975,4.60016,2470.03,2020-5-12T08:11:35Z
2020-05-12T06:13:56Z,42.805,6.029,13.2973,4.60013,2470.007,2020-5-12T08:14:38Z
2020-05-12T06:16:59Z,42.805,6.029,13.3008,4.59996,2469.97,2020-5-12T08:17:41Z
2020-05-12T06:20:03Z,42.805,6.029,13.3128,4.60002,2470.007,2020-5-12T08:20:44Z
2020-05-12T06:23:06Z,42.805,6.029,13.3016,4.60009,2469.97,2020-5-12T08:23:48Z
2020-05-12T06:26:09Z,42.805,6.029,13.3024,4.60009,2469.984,2020-5-12T08:26:51Z
2020-05-12T06:29:12Z,42.805,6.029,13.2974,4.60016,2469.984,2020-5-12T08:29:54Z
2020-05-12T06:32:16Z,42.805,6.029,13.2975,4.60024,2469.993,2020-5-12T08:32:57Z
2020-05-12T06:35:19Z,42.805,6.029,13.2975,4.59999,2470.007,2020-5-12T08:36:01Z
2020-05-12T06:38:22Z,42.805,6.029,13.3020,4.59995,2469.984,2020-5-12T08:39:04Z
2020-05-12T06:41:25Z,42.805,6.029,13.3015,4.60020,2469.96,2020-5-12T08:42:07Z
2020-05-12T06:44:29Z,42.805,6.029,13.2972,4.60009,2469.993,2020-5-12T08:45:10Z
2020-05-12T06:47:32Z,42.805,6.029,13.3000,4.60003,2469.97,2020-5-12T08:48:14Z
2020-05-12T06:50:35Z,42.805,6.029,13.2971,4.60009,2469.993,2020-5-12T08:51:17Z
2020-05-12T06:53:39Z,42.805,6.029,13.2969,4.59993,2469.993,2020-5-12T08:54:20Z
2020-05-12T06:56:42Z,42.805,6.029,13.3006,4.59986,2470.007,2020-5-12T08:57:24Z
2020-05-12T06:59:45Z,42.805,6.029,13.2974,4.60001,2469.993,2020-5-12T09:00:27Z
2020-05-12T07:02:48Z,42.805,6.029,13.2970,4.60010,2469.947,2020-5-12T09:03:30Z
2020-05-12T07:05:52Z,42.805,6.029,13.2974,4.59993,2469.979,2020-5-12T09:06:33Z
2020-05-12T07:08:55Z,42.805,6.029,13.2967,4.59995,2469.993,2020-5-12T09:09:37Z
2020-05-12T07:11:58Z,42.805,6.029,13.2972,4.59998,2470.017,2020-5-12T09:12:40Z
2020-05-12T07:15:02Z,42.805,6.029,13.2970,4.59994,2469.993,2020-5-12T09:15:43Z
2020-05-12T07:18:05Z,42.805,6.029,13.3019,4.59994,2469.993,2020-5-12T09:18:46Z
2020-05-12T07:21:08Z,42.805,6.029,13.2990,4.60032,2469.984,2020-5-12T09:21:50Z
2020-05-12T07:24:11Z,42.805,6.029,13.2989,4.60009,2470.017,2020-5-12T09:24:53Z
2020-05-12T07:27:15Z,42.805,6.029,13.3007,4.59998,2470.03,2020-5-12T09:27:56Z
2020-05-12T07:30:18Z,42.805,6.029,13.2976,4.60016,2470.077,2020-5-12T09:30:59Z
2020-05-12T07:33:21Z,42.805,6.029,13.2971,4.60006,2470.007,2020-5-12T09:34:03Z
2020-05-12T07:36:24Z,42.805,6.029,13.2968,4.59991,2470.03,2020-5-12T09:37:06Z
2020-05-12T07:39:27Z,42.805,6.029,13.2968,4.59989,2469.993,2020-5-12T09:40:09Z
2020-05-12T07:42:31Z,42.805,6.029,13.2965,4.59987,2470.017,2020-5-12T09:43:12Z
2020-05-12T07:45:34Z,42.805,6.029,13.2979,4.59986,2470.053,2020-5-12T09:46:16Z
2020-05-12T07:48:37Z,42.805,6.029,13.2972,4.59995,2469.993,2020-5-12T09:49:19Z
2020-05-12T07:51:40Z,42.805,6.029,13.2973,4.60004,2469.993,2020-5-12T09:52:22Z
2020-05-12T07:54:44Z,42.805,6.029,13.2982,4.60013,2470.017,2020-5-12T09:55:25Z
2020-05-12T07:57:47Z,42.805,6.029,13.2971,4.60029,2470.053,2020-5-12T09:58:29Z
2020-05-12T08:00:50Z,42.805,6.029,13.2968,4.60009,2470.077,2020-5-12T10:01:32Z
2020-05-12T08:03:53Z,42.805,6.029,13.2966,4.60002,2470.063,2020-5-12T10:04:35Z
2020-05-12T08:06:57Z,42.805,6.029,13.2968,4.60004,2470.017,2020-5-12T10:07:38Z
2020-05-12T08:10:00Z,42.805,6.029,13.2967,4.59996,2470.03,2020-5-12T10:10:42Z
2020-05-12T08:13:03Z,42.805,6.029,13.2971,4.59992,2470.053,2020-5-12T10:13:45Z
2020-05-12T08:16:07Z,42.805,6.029,13.2970,4.59991,2470.053,2020-5-12T10:16:48Z
2020-05-12T08:19:10Z,42.805,6.029,13.2992,4.59999,2470.049,2020-5-12T10:19:51Z
2020-05-12T08:22:13Z,42.805,6.029,13.2972,4.60007,2470.017,2020-5-12T10:22:55Z
2020-05-12T08:25:16Z,42.805,6.029,13.2970,4.60065,2470.017,2020-5-12T10:25:58Z
2020-05-12T08:28:20Z,42.805,6.029,13.2986,4.60009,2470.063,2020-5-12T10:29:01Z
2020-05-12T08:31:23Z,42.805,6.029,13.2979,4.60024,2470.04,2020-5-12T10:32:05Z
2020-05-12T08:34:26Z,42.805,6.029,13.2986,4.59998,2470.044,2020-5-12T10:35:08Z
2020-05-12T08:37:29Z,42.805,6.029,13.2979,4.60019,2470.017,2020-5-12T10:38:11Z
2020-05-12T08:40:33Z,42.805,6.029,13.2968,4.60009,2470.077,2020-5-12T10:41:14Z
2020-05-12T08:43:36Z,42.805,6.029,13.2972,4.60019,2470.063,2020-5-12T10:44:18Z
2020-05-12T08:46:39Z,42.805,6.029,13.3041,4.60011,2470.053,2020-5-12T10:47:21Z
2020-05-12T08:49:42Z,42.805,6.029,13.2971,4.60025,2470.04,2020-5-12T10:50:24Z
2020-05-12T08:52:46Z,42.805,6.029,13.2968,4.60031,2470.077,2020-5-12T10:53:28Z
2020-05-12T08:55:49Z,42.805,6.029,13.3054,4.60005,2470.077,2020-5-12T10:56:31Z
2020-05-12T08:58:52Z,42.805,6.029,13.2987,4.60019,2470.077,2020-5-12T10:59:34Z
2020-05-12T09:01:56Z,42.805,6.029,13.2968,4.60041,2470.077,2020-5-12T11:02:37Z
2020-05-12T09:04:59Z,42.805,6.029,13.2967,4.60029,2470.1,2020-5-12T11:05:41Z
2020-05-12T09:08:02Z,42.805,6.029,13.2971,4.59999,2470.077,2020-5-12T11:08:44Z
2020-05-12T09:11:05Z,42.805,6.029,13.2972,4.59999,2470.04,2020-5-12T11:11:47Z
2020-05-12T09:14:09Z,42.805,6.029,13.2970,4.60007,2470.049,2020-5-12T11:14:50Z
2020-05-12T09:17:12Z,42.805,6.029,13.2973,4.60004,2470.04,2020-5-12T11:17:54Z
2020-05-12T09:20:15Z,42.805,6.029,13.3022,4.60036,2470.063,2020-5-12T11:20:57Z
2020-05-12T09:23:18Z,42.805,6.029,13.3032,4.60020,2470.063,2020-5-12T11:24:00Z
2020-05-12T09:26:22Z,42.805,6.029,13.3031,4.60023,2470.087,2020-5-12T11:27:03Z
2020-05-12T09:29:25Z,42.805,6.029,13.3031,4.60021,2470.053,2020-5-12T11:30:06Z
2020-05-12T09:32:28Z,42.805,6.029,13.3019,4.60032,2470.063,2020-5-12T11:33:10Z
2020-05-12T09:35:31Z,42.805,6.029,13.3018,4.60037,2470.063,2020-5-12T11:36:13Z
2020-05-12T09:38:34Z,42.805,6.029,13.3022,4.60028,2470.053,2020-5-12T11:39:16Z
2020-05-12T09:41:38Z,42.805,6.029,13.2972,4.60014,2470.063,2020-5-12T11:42:19Z
2020-05-12T09:44:41Z,42.805,6.029,13.2983,4.60087,2470.077,2020-5-12T11:45:23Z
2020-05-12T09:47:44Z,42.805,6.029,13.2986,4.60029,2470.077,2020-5-12T11:48:26Z
2020-05-12T09:50:48Z,42.805,6.029,13.3022,4.60065,2470.077,2020-5-12T11:51:29Z
2020-05-12T09:53:51Z,42.805,6.029,13.3034,4.60055,2470.063,2020-5-12T11:54:33Z
2020-05-12T09:56:54Z,42.805,6.029,13.3040,4.60022,2470.053,2020-5-12T11:57:36Z
2020-05-12T09:59:57Z,42.805,6.029,13.3054,4.60038,2470.063,2020-5-12T12:00:39Z
2020-05-12T10:03:01Z,42.805,6.029,13.3057,4.60011,2470.077,2020-5-12T12:03:42Z
2020-05-12T10:06:04Z,42.805,6.029,13.3004,4.60029,2470.1,2020-5-12T12:06:46Z
2020-05-12T10:09:07Z,42.805,6.029,13.3032,4.60046,2470.03,2020-5-12T12:09:49Z
2020-05-12T10:12:11Z,42.805,6.029,13.3024,4.60019,2470.077,2020-5-12T12:12:52Z
2020-05-12T10:15:14Z,42.805,6.029,13.3039,4.60056,2470.077,2020-5-12T12:15:56Z
2020-05-12T10:18:17Z,42.805,6.029,13.3054,4.60011,2470.053,2020-5-12T12:18:59Z
2020-05-12T10:21:20Z,42.805,6.029,13.3054,4.60011,2470.053,2020-5-12T12:22:02Z
2020-05-12T10:24:23Z,42.805,6.029,13.3057,4.60019,2470.077,2020-5-12T12:25:05Z
2020-05-12T10:27:27Z,42.805,6.029,13.3043,4.60009,2470.063,2020-5-12T12:28:08Z
2020-05-12T10:30:30Z,42.805,6.029,13.3043,4.60011,2470.04,2020-5-12T12:31:12Z
2020-05-12T10:33:33Z,42.805,6.029,13.3013,4.60026,2470.04,2020-5-12T12:34:15Z
2020-05-12T10:36:37Z,42.805,6.029,13.3051,4.60019,2470.063,2020-5-12T12:37:18Z
2020-05-12T10:39:40Z,42.805,6.029,13.3044,4.60014,2470.053,2020-5-12T12:40:22Z
2020-05-12T10:42:43Z,42.805,6.029,13.3053,4.60023,2470.03,2020-5-12T12:43:25Z
2020-05-12T10:45:46Z,42.805,6.029,13.3060,4.60001,2470.03,2020-5-12T12:46:28Z
2020-05-12T10:48:50Z,42.805,6.029,13.3058,4.60005,2470.053,2020-5-12T12:49:31Z
2020-05-12T10:51:53Z,42.805,6.029,13.3043,4.60001,2470.04,2020-5-12T12:52:35Z
2020-05-12T10:54:56Z,42.805,6.029,13.3043,4.60034,2470.017,2020-5-12T12:55:38Z
2020-05-12T10:57:59Z,42.805,6.029,13.3018,4.60027,2470.03,2020-5-12T12:58:41Z
2020-05-12T11:01:03Z,42.805,6.029,13.3050,4.60039,2470.053,2020-5-12T13:01:44Z
2020-05-12T11:04:06Z,42.805,6.029,13.3053,4.60019,2470.03,2020-5-12T13:04:48Z
2020-05-12T11:07:09Z,42.805,6.029,13.3053,4.60007,2470.04,2020-5-12T13:07:51Z
2020-05-12T11:10:12Z,42.805,6.029,13.3050,4.60019,2470.053,2020-5-12T13:10:54Z
2020-05-12T11:13:15Z,42.805,6.029,13.3042,4.60016,2470.063,2020-5-12T13:13:57Z
2020-05-12T11:16:19Z,42.805,6.029,13.3029,4.60007,2470.091,2020-5-12T13:17:00Z
2020-05-12T11:19:22Z,42.805,6.029,13.3029,4.60021,2470.053,2020-5-12T13:20:04Z
2020-05-12T11:22:25Z,42.805,6.029,13.3037,4.60052,2470.03,2020-5-12T13:23:07Z
2020-05-12T11:25:28Z,42.805,6.029,13.3021,4.60072,2470.053,2020-5-12T13:26:10Z
2020-05-12T11:28:32Z,42.805,6.029,13.3044,4.60009,2470.03,2020-5-12T13:29:13Z
2020-05-12T11:31:35Z,42.805,6.029,13.3041,4.60015,2470.017,2020-5-12T13:32:17Z
2020-05-12T11:34:38Z,42.805,6.029,13.3035,4.60019,2470.017,2020-5-12T13:35:20Z
2020-05-12T11:37:42Z,42.805,6.029,13.3035,4.60018,2469.993,2020-5-12T13:38:23Z
2020-05-12T11:40:45Z,42.805,6.029,13.3048,4.60010,2470.04,2020-5-12T13:41:26Z
2020-05-12T11:43:48Z,42.805,6.029,13.3040,4.60006,2469.993,2020-5-12T13:44:30Z
2020-05-12T11:46:51Z,42.805,6.029,13.3050,4.60001,2470.053,2020-5-12T13:47:33Z
2020-05-12T11:49:55Z,42.805,6.029,13.3057,4.60003,2470.017,2020-5-12T13:50:36Z
2020-05-12T11:52:58Z,42.805,6.029,13.3029,4.60031,2470.017,2020-5-12T13:53:40Z
2020-05-12T11:56:01Z,42.805,6.029,13.3037,4.60003,2470.03,2020-5-12T13:56:43Z
2020-05-12T11:59:04Z,42.805,6.029,13.3053,4.60011,2470.017,2020-5-12T13:59:46Z
2020-05-12T12:02:08Z,42.805,6.029,13.3026,4.60009,2470.03,2020-5-12T14:02:49Z
2020-05-12T12:05:11Z,42.805,6.029,13.3035,4.60005,2470.007,2020-5-12T14:05:53Z
2020-05-12T12:08:14Z,42.805,6.029,13.3042,4.60010,2470.007,2020-5-12T14:08:56Z
2020-05-12T12:11:18Z,42.805,6.029,13.3047,4.60002,2470.04,2020-5-12T14:12:00Z
2020-05-12T12:14:21Z,42.805,6.029,13.3024,4.60019,2470.017,2020-5-12T14:15:03Z
2020-05-12T12:17:24Z,42.805,6.029,13.3016,4.60014,2470.03,2020-5-12T14:18:06Z
2020-05-12T12:20:28Z,42.805,6.029,13.3055,4.60011,2470.077,2020-5-12T14:21:09Z
2020-05-12T12:23:31Z,42.805,6.029,13.3043,4.60001,2470.03,2020-5-12T14:24:13Z
2020-05-12T12:26:34Z,42.805,6.029,13.3021,4.60014,2470.053,2020-5-12T14:27:16Z
2020-05-12T12:29:37Z,42.805,6.029,13.3029,4.60010,2469.984,2020-5-12T14:30:19Z
2020-05-12T12:32:41Z,42.805,6.029,13.3015,4.60004,2469.993,2020-5-12T14:33:22Z
2020-05-12T12:35:44Z,42.805,6.029,13.3043,4.60017,2470.007,2020-5-12T14:36:26Z
2020-05-12T12:38:47Z,42.805,6.029,13.3019,4.59996,2470.017,2020-5-12T14:39:29Z
2020-05-12T12:41:50Z,42.805,6.029,13.3022,4.60006,2469.97,2020-5-12T14:42:32Z
2020-05-12T12:44:54Z,42.805,6.029,13.3024,4.59994,2470.03,2020-5-12T14:45:35Z
2020-05-12T12:47:57Z,42.805,6.029,13.3038,4.60007,2469.993,2020-5-12T14:48:38Z
2020-05-12T12:51:00Z,42.805,6.029,13.3015,4.59992,2470.026,2020-5-12T14:51:42Z
2020-05-12T12:54:03Z,42.805,6.029,13.3029,4.60005,2470.007,2020-5-12T14:54:45Z
2020-05-12T12:57:07Z,42.805,6.029,13.3021,4.60026,2470.03,2020-5-12T14:57:48Z
2020-05-12T13:00:10Z,42.805,6.029,13.3021,4.60011,2470.007,2020-5-12T15:00:52Z
2020-05-12T13:03:13Z,42.805,6.029,13.3010,4.60015,2469.97,2020-5-12T15:03:55Z
2020-05-12T13:06:16Z,42.805,6.029,13.3011,4.60003,2470.007,2020-5-12T15:06:58Z
2020-05-12T13:09:20Z,42.805,6.029,13.3022,4.60005,2469.993,2020-5-12T15:10:01Z
2020-05-12T13:12:23Z,42.805,6.029,13.3029,4.60003,2470.03,2020-5-12T15:13:05Z
2020-05-12T13:15:26Z,42.805,6.029,13.3017,4.60011,2469.984,2020-5-12T15:16:08Z
2020-05-12T13:18:29Z,42.805,6.029,13.3008,4.60009,2470.03,2020-5-12T15:19:11Z
2020-05-12T13:21:33Z,42.805,6.029,13.2998,4.59998,2470.021,2020-5-12T15:22:14Z
2020-05-12T13:24:36Z,42.805,6.029,13.3007,4.59996,2469.993,2020-5-12T15:25:18Z
2020-05-12T13:27:39Z,42.805,6.029,13.3021,4.59996,2469.984,2020-5-12T15:28:21Z
2020-05-12T13:30:42Z,42.805,6.029,13.3009,4.60006,2469.993,2020-5-12T15:31:24Z
2020-05-12T13:33:46Z,42.805,6.029,13.2990,4.59992,2470.017,2020-5-12T15:34:27Z
2020-05-12T13:36:49Z,42.805,6.029,13.2998,4.59995,2469.993,2020-5-12T15:37:31Z
2020-05-12T13:39:52Z,42.805,6.029,13.3010,4.60000,2469.984,2020-5-12T15:40:34Z
2020-05-12T13:42:55Z,42.805,6.029,13.3003,4.59996,2470.007,2020-5-12T15:43:37Z
2020-05-12T13:45:59Z,42.805,6.029,13.3011,4.59996,2469.956,2020-5-12T15:46:40Z
2020-05-12T13:49:02Z,42.805,6.029,13.3013,4.59996,2469.97,2020-5-12T15:49:44Z
2020-05-12T13:52:05Z,42.805,6.029,13.3013,4.59996,2469.97,2020-5-12T15:52:47Z
2020-05-12T13:55:08Z,42.805,6.029,13.2993,4.59995,2470.03,2020-5-12T15:55:50Z
2020-05-12T13:58:12Z,42.805,6.029,13.2998,4.59992,2470.017,2020-5-12T15:58:53Z
2020-05-12T14:01:15Z,42.805,6.029,13.3004,4.59990,2469.984,2020-5-12T16:01:57Z
2020-05-12T14:04:18Z,42.805,6.029,13.2996,4.59994,2469.97,2020-5-12T16:05:00Z
2020-05-12T14:07:21Z,42.805,6.029,13.2998,4.59991,2469.97,2020-5-12T16:08:03Z
2020-05-12T14:10:25Z,42.805,6.029,13.2990,4.59999,2469.984,2020-5-12T16:11:07Z
2020-05-12T14:13:28Z,42.805,6.029,13.2994,4.59998,2470.007,2020-5-12T16:14:10Z
2020-05-12T14:16:31Z,42.805,6.029,13.3011,4.59992,2470.007,2020-5-12T16:17:13Z
2020-05-12T14:19:35Z,42.805,6.029,13.2991,4.60002,2470.007,2020-5-12T16:20:16Z
2020-05-12T14:22:38Z,42.805,6.029,13.3004,4.59986,2470.007,2020-5-12T16:23:20Z
2020-05-12T14:25:41Z,42.805,6.029,13.2987,4.59996,2469.984,2020-5-12T16:26:23Z
2020-05-12T14:28:44Z,42.805,6.029,13.2990,4.59991,2469.97,2020-5-12T16:29:26Z
2020-05-12T14:31:48Z,42.805,6.029,13.2985,4.59985,2470.007,2020-5-12T16:32:29Z
2020-05-12T14:34:51Z,42.805,6.029,13.2979,4.59991,2469.97,2020-5-12T16:35:33Z
2020-05-12T14:37:54Z,42.805,6.029,13.2996,4.59988,2470.007,2020-5-12T16:38:36Z
2020-05-12T14:40:58Z,42.805,6.029,13.2989,4.59990,2469.993,2020-5-12T16:41:39Z
2020-05-12T14:44:01Z,42.805,6.029,13.2990,4.59987,2469.97,2020-5-12T16:44:43Z
2020-05-12T14:47:04Z,42.805,6.029,13.2985,4.59999,2470.007,2020-5-12T16:47:46Z
2020-05-12T14:50:07Z,42.805,6.029,13.2994,4.59999,2469.984,2020-5-12T16:50:49Z
2020-05-12T14:53:11Z,42.805,6.029,13.2984,4.59986,2469.947,2020-5-12T16:53:52Z
2020-05-12T14:56:14Z,42.805,6.029,13.2995,4.59984,2469.97,2020-5-12T16:56:56Z
2020-05-12T14:59:17Z,42.805,6.029,13.2988,4.59983,2470.007,2020-5-12T16:59:59Z
2020-05-12T15:02:20Z,42.805,6.029,13.2991,4.59998,2469.97,2020-5-12T17:03:02Z
2020-05-12T15:05:24Z,42.805,6.029,13.2990,4.59988,2469.96,2020-5-12T17:06:05Z
2020-05-12T15:08:27Z,42.805,6.029,13.2992,4.59987,2469.984,2020-5-12T17:09:09Z
2020-05-12T15:11:30Z,42.805,6.029,13.2986,4.59988,2470.007,2020-5-12T17:12:12Z
2020-05-12T15:14:33Z,42.805,6.029,13.2985,4.59987,2470.007,2020-5-12T17:15:15Z